Погода в Кингисеппе

Погода в Кингисеппе : погода сейчас, прогноз погоды и архив. Всё, что Вы хотите узнать о погоде в Кингисеппе!

Поиск расширенной информации на нашем сайте:

Другие новости

Новости СМИ2

Главная страница сайта

Новости сайта

03.07.2017

Напоминаем, что на нашем специализированном сайте Метеоцентр.Азия вы можете получить высокодетализированные автоматические прогнозы погоды по пунктам России, СНГ и мира в авиационном формате (включающие направление и скорость ветра, видимость, явления погоды, количество и форму облачности, нижнюю и верхнюю границу облачности).


Погода в Кингисеппе - сегодня

Время (UTC), дата Ветер
(°,м/с) 
Видим.   Явления Облачность Т
(°С)
Тd
(°С)
f(%) Тe
(°С)
Pmin
(гПа)
dP
(гПа)
Po
(мм)
O2
(г/м3)
Тmin Tmax R s Состояние
почвы
12 14.04.18 200 (Ю) 20000 м    ясно 
+17.3 -6.7 19 +18  1025.4  -1.7  767  291           
15 14.04.18 260 (З) 20000 м    ясно 
+17.9 -7.1 18 +19  1023.3  -2.1  766  290           
18 14.04.18 060 (СВ) 10 км    ясно 
+11.1 -3.6 35 +12  1022.7  -0.7  765  297    +18.3       
21 14.04.18 120 (ЮВ) 10 км    ясно 
+2.8 -1.1 75 +4  1021.9  -0.9  764  305           
00 15.04.18 110 (В) 10 км    ясно 
+1 -2.3 79 +2  1020.9  -1  764  307           
03 15.04.18 110 (В) 10 км    ясно 
+1.3 -3.6 70 +2  1019.8  -1.1  763  306  +0.7         
06 15.04.18 120 (ЮВ) 20000 м    ясно 
+8.6 -2.4 46 +10  1020  0.3  763  298  +0.7         
09 15.04.18 150 (ЮВ) 20000 м    ясно 
+18.1 -1.9 26 +19  1019.4  -0.5  763  288           
12 15.04.18 180 (Ю) 20000 м    ясно 
+20.7 -1.6 22 +21  1018.9  -0.5  762  286           
15 15.04.18 280 (З) 20000 м    3/0 средняя 
[Ac trans]
+20.8 +0.8 26 +21  1017.8  -1.1  762  285           
21 15.04.18 210 (ЮЗ) 10 км    10/0 верхняя 
[Ci fib]
+6.7 +5.5 92 +8  1018.6  0.3  762  299           
00 16.04.18 тихо ()   10 км    10/0 средняя, верхняя 
[Ac trans|Ci fib]
+4.9 +4.5 97 +5  1018.6  762  301           
09 16.04.18 080 (В) 10 км  {ливн. осадки}  10/3 600 м средняя 
[Sc|As trans]
+13.7 +9.6 76 +15  1017.4  -0.5  761  290           
15 16.04.18 040 (СВ) 10 км    8/3 600 м кучево-дожд., средняя 
[Cb cap|Ac trans]
+18.6 +10.1 58 +20  1014.5  -1.7  759  285      0.0     
03 18.04.18 300 (СЗ) 4000 м  дымка  10/10 100 м 
[St]
+3.9 +3.9 100 +2  1013.2  0.1  758  301  +3.7       
03 19.04.18 300 (СЗ) 4000 м  слаб. дождь  10/10 150 м 
[Frnb|Ns]
+3.5 +3.5 100 +4  1016.7  -0.6  761  302  +3.5       
09 19.04.18 300 (СЗ) 10 км    9/8 240 м средняя 
[St|Ac trans]
+7.5 +7.4 99 +7  1019.2  1.8  763  298           
12 19.04.18 320 (СЗ) 10 км    1/1 600 м 
[Sc]
+13.4 +7.2 66 +13  1020.1  763  292           
15 19.04.18 280 (З) 20000 м    ясно 
+11.6 +5.5 66 +12  1021  0.9  764  294         
21 19.04.18 290 (З) 10 км    ясно 
+3.6 +2.9 95 +4  1021.6  0.1  764  304           
00 20.04.18 тихо ()   4000 м  дымка  ясно 
+0.1 +0.1 100 1021.8  0.1  764  308           
03 20.04.18 тихо ()   4000 м  дымка [диам. гололёда 0 мм]  4/0 верхняя 
[Ci fib]
-0.5 -0.5 100 -1  1021.2  -0.7  764  308  -0.8         
09 20.04.18 250 (З) 10 км    10/0 средняя 
[Ac As]
+10.3 +4.9 69 +10  1018.7  -1.9  762  295           
15 20.04.18 230 (ЮЗ) 10 км    9/0 средняя 
[Ac trans]
+17.1 +7.7 54 +18  1010.3  -4.6  756  285           
21 20.04.18 140 (ЮВ) 10 км    10/0 верхняя 
[Ci fib]
+7.1 +5.8 91 +8  1005.3  -3.5  752  294           
Время (UTC), дата Ветер
(°,м/с) 
Видим.   Явления Облачность Т
(°С)
Тd
(°С)
f(%) Тe
(°С)
Pmin
(гПа)
dP
(гПа)
Po
(мм)
O2
(г/м3)
Тmin Tmax R s Состояние
почвы

Для получения пояснительной информации подведите курсор к названию столбца.

ПОГОДА в Кингисеппе - архив

Всё, что Вы хотите узнать о погоде в Кингисеппе - удобно и подробно!

Выберите нужную дату (начиная с 1 января 2015* года) и нажмите кнопку "Найти".
Будут отображены архивные сводки погоды по пункту Кингисепп, начиная с указанной даты.


Отображать данные в формате CSV (для использования в таблицах Excel)


Внимание! Наш архив погоды предназначен исключительно для личного некоммерческого использования в познавательных целях. Если Вам необходимы официальные справки о состоянии погоды (для производственных, юридических, коммерческих и т.п. целей), обращайтесь в органы Росгидромета.

*Примечание: данная дата относится к архиву по метеостанциям СССР (Россия, СНГ, Балтия).
Архив по метеостанциям Зарубежной Европы и Азии (кроме Китая) хранится 10 дней, по другим регионам земного шара (Китай, Африка, Америка, Австралия, Океания) - 1 день.

Кингисепп - район местоположения метеостанции


Название, широта, долгота, высота метеостанции:
Кингисепп 59.4°ш. 28.6°д. 19 м над ур. моря [Российская Федерация]

Дополнительная информация

В oтличие oт бoльшинства пoгoдных сайтoв мы публикуем пoдрoбную метеoинфoрмацию в детальнoм прoфессиoнальнoм фoрмате.

Характеристики температуры и влажнoсти вoздуха измеряются на высoте 2 м в тени вдали oт зданий и деревьев.
Скoрoсть ветра измеряется на высoте 10 м (на урoвне рoста челoвека скoрoсть ветра ниже в 1.5-2 раза). Если метеoстанция нахoдится в гoрoде или в лесу, тo скoрoсть ветра занижена на 2-4 м/с пo сравнению с oткрытым местoм. Скoрoсть ветра над акватoриями крупных рек и oзёр, а также на вершинах хoлмoв на 2-5 м/с выше, чем в oбычных услoвиях.
Атмoсфернoе давление в разных тoчках местнoсти мoжет значительнo oтличаться oт давления на метеoстанции, в зависимoсти oт услoвий рельефа (при пoдъёме на 10 м давление пoнижается примернo на 1 мм рт.ст.).